SCP
0 0 0 0 0 0 0 0 0 0 0 0 0 0 0 0 0 0 0 0 0 0 0 0 0 0 0 0 0 0 0 0 0 0 0 0 0 0 0 0 0 0 0 0
0 0 0 0 0 0 0 0 0 0 0 0 0 0 0 0 0 0 0 0 0 0 0 0 0 0 0 0 0 0 0 0 0 0 0 0 0 0 0 0 0 0 0 0
0 0 0 0 0 0 0 0 0 0 0 0 0 0 0 0 0 0 0 0 0 0 0 0 0 0 0 0 0 0 0 0 0 0 0 0 0 0 0 0 0 0 0 0
0 0 0 0 0 0 0 0 0 0 0 0 0 0 0 0 0 0 0 0 0 0 0 0 0 0 0 0 0 0 0 0 0 0 0 0 0 0 0 0 0 0 0 0
0 0 0 0 0 0 0 0 0 0 0 0 0 0 0 0 0 0 0 0 0 0 0 1 0 0 0 0 0 0 0 0 0 0 0 0 0 0 0 0 0 0 0 0
0 0 0 0 0 0 0 0 0 0 0 0 0 0 0 0 0 0 0 0 0 0 1 1 1 0 0 0 0 0 0 0 0 0 0 0 0 0 0 0 0 0 0 0
0 0 0 0 0 0 0 0 0 0 0 0 0 0 0 0 0 0 0 0 0 0 0 1 1 1 0 0 0 0 0 0 0 0 0 0 0 0 0 0 0 0 0 0
0 0 0 0 0 0 0 0 0 0 0 0 0 0 0 0 0 0 0 0 0 0 0 1 1 1 0 0 0 0 0 0 0 0 0 0 0 0 0 0 0 0 0 0
0 0 0 0 0 0 0 0 0 0 0 0 0 0 0 0 0 0 0 0 0 0 0 1 1 0 0 0 0 0 0 0 0 0 0 0 0 0 0 0 0 0 0 0
0 0 0 0 0 0 0 0 0 0 0 0 0 0 0 0 0 0 0 0 0 0 0 0 0 0 0 0 0 0 0 0 0 0 0 0 0 0 0 0 0 0 0 0
0 0 0 0 0 0 0 0 0 0 0 0 0 0 0 0 0 0 0 0 0 0 0 0 0 0 0 0 0 0 0 0 0 0 0 0 0 0 0 0 0 0 0 0
0 0 0 0 0 0 0 0 0 0 0 0 0 0 0 0 0 0 0 0 0 0 0 0 0 0 0 0 0 0 0 0 0 0 0 0 0 0 0 0 0 0 0 0
0 0 0 0 0 0 0 0 0 0 0 0 0 0 0 0 0 0 0 0 0 0 0 0 0 0 0 0 0 0 0 0 0 0 0 0 0 0 0 0 0 0 0 0
0 0 0 0 0 0 0 0 0 0 0 0 0 0 0 0 0 0 0 0 0 0 0 0 0 0 0 0 0 0 0 0 0 0 0 0 0 0 0 0 0 0 0 0
0 0 0 0 0 0 0 0 0 0 0 0 0 0 0 0 0 0 0 0 0 0 0 0 0 0 0 0 0 0 0 0 0 0 0 0 0 0 0 0 0 0 0 0
0 0 0 0 0 0 0 0 0 0 0 0 0 0 0 0 0 0 0 0 0 0 0 0 0 0 0 0 0 0 0 0 0 0 0 0 0 0 0 0 0 0 0 0
0 0 0 0 0 0 0 0 0 0 0 0 0 0 0 0 0 0 0 0 0 0 0 0 0 0 0 0 0 0 0 0 0 0 0 0 0 0 0 0 0 0 0 0
0 0 0 0 0 0 0 0 0 0 0 0 0 0 0 0 0 0 0 0 0 0 0 0 0 0 0 0 0 0 0 0 0 0 0 0 0 0 0 0 0 0 0 0
0 0 0 0 0 0 0 0 0 0 0 0 0 0 0 0 0 0 0 0 0 0 0 0 0 0 0 0 0 0 0 0 0 0 0 0 0 0 0 0 0 0 0 0
0 0 0 0 0 0 0 0 0 0 0 0 0 0 0 0 0 0 0 0 0 0 0 0 0 0 0 0 0 0 0 0 0 0 0 0 0 0 0 0 0 0 0 0
0 0 0 0 0 0 0 0 0 0 0 0 0 0 0 0 0 0 0 0 0 0 0 0 0 0 0 0 0 0 0 0 0 0 0 0 0 0 0 0 0 0 0 0
0 0 0 0 0 0 0 0 0 0 0 0 0 0 0 0 0 0 0 0 0 0 0 0 0 0 0 0 0 0 0 0 0 0 0 0 0 0 0 0 0 0 0 0
0 0 0 0 0 0 0 0 0 0 0 0 0 0 0 0 0 0 0 0 0 0 0 0 0 0 0 0 0 0 0 0 0 0 0 0 0 0 0 0 0 0 0 0
0 0 0 0 0 0 0 0 0 0 0 0 0 0 0 0 0 0 0 0 0 0 0 0 0 0 0 0 0 0 0 0 0 0 0 0 0 0 0 0 0 0 0 0
0 0 0 0 0 0 0 0 0 0 0 0 0 0 0 0 0 0 0 0 0 0 0 0 0 0 0 0 0 0 0 0 0 0 0 0 0 0 0 0 0 0 0 0
0 0 0 0 0 0 0 0 0 0 0 0 0 0 0 0 0 0 0 0 0 0 0 0 0 0 0 0 0 0 0 0 0 0 0 0 0 0 0 0 0 0 0 0
Wind_Speed
2 4 2 6 6 4 4 2 1 3 2 2 3 4 5 6 7 7 7 7 7 6 4 4 4 4 4 4 4 4 5 4 4 3 2 2 1 1 1 1 2 2 3 3
4 2 5 3 3 4 3 2 2 2 0 2 3 2 3 6 8 8 9 8 7 6 5 4 4 4 4 5 4 4 4 5 4 2 2 2 2 1 1 1 3 3 3 2
4 5 2 3 2 2 2 5 4 3 1 2 3 1 2 3 3 5 5 6 7 8 8 6 6 5 5 5 5 4 4 4 4 4 3 3 3 2 2 2 2 3 2 2
3 4 2 2 3 5 3 4 5 3 2 1 1 2 4 3 4 6 6 6 8 7 7 7 7 6 5 4 4 4 4 4 4 4 4 4 3 2 1 1 1 2 3 3
4 2 2 3 4 6 4 2 4 3 3 1 1 2 5 2 5 8 8 8 7 7 7 7 7 6 5 4 4 4 5 4 4 4 4 5 3 2 2 2 2 2 3 3
4 3 3 4 1 4 5 5 6 5 4 1 3 3 6 4 6 6 7 7 6 6 7 7 6 6 5 4 4 5 5 4 4 4 4 5 5 4 3 2 2 1 2 2
4 3 2 2 2 2 4 6 4 4 3 4 2 3 7 4 4 6 7 6 6 6 7 7 8 8 7 6 5 4 5 4 4 4 4 4 5 4 4 2 1 1 1 1
1 4 3 2 5 5 4 7 7 5 4 4 1 5 6 2 2 2 3 4 5 5 6 7 7 7 7 6 5 5 5 4 4 4 4 3 4 3 2 2 2 1 0 1
4 4 3 1 2 7 5 3 5 6 2 1 4 5 5 1 1 2 3 4 5 5 6 7 6 6 6 6 5 5 5 4 4 4 4 4 4 3 3 2 2 1 0 1
6 3 3 1 3 3 4 7 5 5 4 3 4 4 4 4 3 3 4 4 4 5 5 6 6 6 5 4 4 5 5 5 4 4 3 3 3 3 3 2 2 1 1 1
4 3 3 2 1 3 3 4 5 4 4 5 3 6 4 5 5 5 5 5 5 6 5 5 5 5 5 5 5 5 5 5 4 4 4 4 3 3 3 2 1 1 1 1
3 4 1 4 3 2 3 5 6 4 3 4 3 7 2 3 4 4 5 5 5 5 5 4 5 5 5 5 4 4 4 4 4 4 5 4 3 3 2 1 1 1 1 1
5 5 2 5 4 2 2 3 3 5 4 4 4 6 1 2 3 3 5 5 5 6 5 5 5 5 5 5 4 4 3 4 4 4 5 4 3 2 1 0 0 1 1 1
6 4 6 6 6 3 2 2 3 5 4 4 6 6 3 2 3 4 5 6 6 6 6 5 4 4 4 5 5 5 4 3 4 4 4 3 2 2 1 0 0 1 1 1
4 3 3 4 3 2 2 3 4 4 6 6 6 5 6 5 5 5 6 6 7 6 6 6 5 4 4 4 4 4 4 4 4 4 3 2 2 2 1 0 1 1 1 1
3 3 1 2 1 1 1 2 3 4 3 3 2 4 3 3 4 4 5 7 7 7 7 6 6 6 5 5 5 5 4 4 4 4 3 2 2 2 1 1 1 1 2 2
2 4 3 2 3 2 3 4 4 3 3 5 6 6 4 4 5 6 7 7 8 7 7 7 6 6 6 6 6 5 4 4 4 3 3 3 3 2 1 1 1 1 1 1
5 4 3 2 1 3 6 2 3 3 3 3 3 3 5 5 4 3 4 6 7 7 7 6 6 5 4 4 5 5 5 5 4 3 3 3 3 2 1 1 0 1 1 1
5 7 4 3 2 4 5 2 3 3 3 3 4 3 4 5 4 1 2 4 6 7 6 5 5 5 5 5 6 6 5 4 4 3 3 3 3 3 2 1 1 1 0 1
4 4 5 4 3 5 6 2 2 3 3 3 5 6 7 6 3 3 3 4 4 4 4 4 4 4 5 5 6 6 5 4 4 3 3 3 3 3 2 2 1 1 1 1
2 3 3 3 3 6 5 1 3 3 6 3 5 7 7 5 4 3 4 4 5 5 4 5 5 5 5 5 6 6 5 4 4 3 3 2 2 2 2 1 1 1 1 1
5 4 4 4 3 7 2 3 5 6 2 4 5 6 6 4 4 4 5 6 6 5 4 4 5 5 4 6 7 5 4 4 3 3 2 2 1 1 1 1 1 0 0 1
4 6 6 7 7 4 2 3 2 3 3 4 5 5 7 6 4 5 5 6 5 5 4 4 5 5 4 5 6 6 4 4 4 3 2 1 1 0 1 1 1 1 0 1
2 2 3 2 4 2 2 1 0 1 3 4 6 7 7 6 6 6 6 5 5 4 4 4 5 6 4 4 4 5 4 4 4 3 2 1 1 0 1 0 1 1 1 2
4 3 2 2 3 1 2 2 3 3 4 6 6 6 7 8 7 6 6 6 5 4 3 4 5 5 5 4 3 3 4 4 4 3 2 1 1 1 1 1 2 3 3 4
5 7 7 7 8 6 5 4 4 6 6 7 8 6 5 7 8 6 5 5 5 5 4 4 4 4 4 4 3 3 3 4 4 2 2 1 1 1 1 2 3 3 5 6
Wind_Direction
86 83 195 212 192 175 148 148 213 253 246 144 174 177 194 182 171 175 179 176 179 183 163 140 140 137 132 131 133 137 133 131 126 116 117 113 102 74 61 59 53 53 54 50
48 272 232 189 163 150 150 149 233 278 282 144 158 190 194 184 193 190 186 186 183 171 161 159 150 144 146 150 142 138 137 138 136 130 129 118 109 92 74 46 36 35 44 43
186 240 184 154 161 152 203 185 197 189 44 63 119 330 219 207 194 193 189 182 184 182 180 170 162 164 161 161 159 154 143 139 141 137 121 101 84 68 51 38 24 12 32 47
234 240 180 171 214 163 239 218 170 155 118 281 124 256 265 210 208 210 203 192 193 188 178 167 167 167 171 169 148 138 137 131 132 133 134 135 132 130 145 106 56 22 30 32
257 207 185 216 222 170 200 135 121 127 138 81 12 169 274 208 218 223 213 206 201 187 175 168 169 167 164 155 144 132 124 122 127 129 135 126 117 127 115 89 73 43 25 23
249 243 202 210 191 140 131 77 63 52 71 312 238 180 265 219 218 218 209 208 202 181 172 160 151 144 144 141 139 134 131 127 124 122 124 129 129 127 114 97 83 47 22 15
322 303 245 149 94 58 97 91 44 5 6 253 252 200 249 240 228 212 205 200 190 175 168 158 153 154 155 151 146 140 135 129 123 120 120 127 131 134 136 134 115 69 27 5
292 296 252 186 173 176 166 140 157 191 220 265 285 236 254 251 250 214 179 163 160 164 169 166 163 159 160 157 149 142 136 128 122 118 117 118 124 128 133 129 123 101 18 309
188 255 292 250 161 142 143 166 157 133 150 269 272 275 296 158 101 113 124 141 161 167 163 161 155 152 153 154 153 149 139 127 125 124 121 116 114 117 115 101 91 101 350 328
165 223 286 282 84 48 134 140 106 125 150 246 278 260 238 210 198 170 161 171 173 159 152 152 151 150 149 146 141 136 135 137 136 133 129 119 112 109 105 95 74 45 20 15
148 161 302 16 153 181 112 108 109 118 155 165 247 268 234 198 191 187 184 176 169 162 154 147 146 143 136 129 132 139 137 134 134 132 117 107 106 100 98 97 86 60 24 16
150 125 236 264 260 179 157 161 147 153 209 179 192 266 294 189 185 175 167 155 147 145 140 137 139 134 129 130 133 138 140 140 142 132 115 110 101 94 91 82 58 47 26 13
141 115 62 347 346 13 116 153 151 129 123 162 185 260 349 104 123 146 147 144 141 137 131 128 133 139 140 138 140 141 140 142 135 128 122 118 112 101 88 32 5 33 33 14
120 121 160 197 222 213 222 191 164 138 157 202 221 240 265 202 164 155 149 150 147 145 145 143 140 148 150 150 152 151 148 143 134 131 131 133 143 145 155 249 28 33 24 13
102 145 201 230 239 201 223 219 193 187 192 195 226 219 242 213 185 171 162 153 151 156 160 162 160 157 155 156 156 150 142 139 138 135 139 154 152 136 123 58 17 19 17 4
83 143 130 326 299 192 250 256 210 209 195 192 204 251 241 150 131 144 162 164 169 174 174 170 167 163 168 171 165 154 147 146 138 141 154 157 139 126 119 90 25 18 8 356
122 133 122 257 306 10 278 244 208 202 197 180 207 226 162 152 169 176 179 178 179 179 177 176 178 174 176 176 166 164 158 146 144 153 159 155 144 138 146 128 68 5 335 347
141 123 130 154 79 236 253 256 183 177 223 206 202 192 172 175 168 164 172 179 182 179 178 177 173 168 168 167 160 155 146 148 151 154 161 162 153 157 160 138 153 287 284 313
151 138 126 130 181 271 281 231 174 169 250 205 185 161 135 118 90 61 184 179 184 179 174 173 171 166 161 164 157 148 144 146 146 154 168 175 167 161 166 179 241 262 288 314
85 110 121 135 166 236 247 242 169 117 273 220 167 157 151 133 145 232 185 156 150 142 142 144 144 142 152 158 148 146 148 150 166 180 181 174 168 165 184 212 232 247 233 274
90 79 126 158 207 258 255 229 117 157 244 197 160 160 162 172 187 173 144 144 145 142 143 143 141 147 155 148 143 148 150 172 186 171 159 160 166 173 190 207 233 236 266 319
172 159 175 152 191 252 253 140 176 212 205 149 153 157 155 140 117 119 130 135 132 130 132 140 141 144 144 143 143 148 166 181 161 146 150 166 167 176 162 161 251 265 144 336
192 189 180 183 209 238 231 203 218 164 155 163 154 150 141 130 128 123 127 130 133 136 137 132 138 138 136 146 148 157 178 162 145 138 155 182 159 149 167 170 231 294 295 276
240 151 139 224 262 254 244 232 167 156 164 152 142 141 140 137 138 132 131 131 130 129 132 129 132 136 142 153 155 165 165 152 145 155 178 175 144 328 342 318 225 236 253 261
213 152 149 236 253 269 267 201 169 128 121 120 119 132 143 136 138 140 141 143 142 136 128 131 141 148 155 153 153 164 158 149 151 164 178 178 183 222 290 294 258 245 242 228
199 181 182 217 210 187 210 190 158 143 144 141 130 124 129 140 143 140 143 143 141 137 131 133 138 145 150 150 160 170 163 156 158 172 192 207 220 242 258 286 308 281 253 262